Date,TemperatureHighF,TemperatureAvgF,TemperatureLowF,DewpointHighF,DewpointAvgF,DewpointLowF,HumidityHigh,HumidityAvg,HumidityLow,PressureMaxIn,PressureMinIn,WindSpeedMaxMPH,WindSpeedAvgMPH,GustSpeedMaxMPH,PrecipitationSumIn
2013-5-1,63,32,10,16,-36,-100,25,12,12,0.00,40.00,5,-506,0,0.00
2013-5-2,66,43,31,44,0,-100,81,35,19,0.00,40.00,4,-715,0,0.00
2013-5-3,70,40,35,52,0,-100,99,49,19,0.00,40.00,4,-765,0,0.00
2013-5-4,64,40,40,39,-1,-100,68,37,30,0.00,40.00,3,-700,0,0.00
2013-5-5,57,40,39,49,6,-100,99,63,55,0.00,40.00,3,-741,0,0.00
2013-5-6,44,37,33,44,25,-100,99,89,99,0.00,40.00,8,-833,0,0.00
2013-5-7,49,37,35,47,11,-100,99,79,96,0.00,40.00,48,-862,0,0.00
2013-5-8,58,42,38,50,10,-100,99,71,59,0.00,40.00,4,-864,0,0.00
2013-5-9,66,41,36,54,22,-100,99,77,53,0.00,40.00,4,-792,0,0.00
2013-5-10,72,46,38,57,22,-100,99,71,42,0.00,40.00,3,-840,0,0.00
2013-5-11,74,41,40,62,12,-100,99,67,40,0.00,40.00,4,-753,0,0.00
2013-5-12,74,42,10,56,-5,-100,99,54,34,0.00,40.00,7,-652,0,0.00
2013-5-13,71,38,41,52,-8,-100,99,48,41,0.00,40.00,83,-613,0,0.00
2013-5-14,65,43,40,55,10,-100,99,63,45,0.00,40.00,159,-742,0,0.00
2013-5-15,65,28,37,46,-20,-100,99,48,37,0.00,40.00,9,-510,0,0.00
2013-5-16,53,26,41,49,-27,-100,99,46,60,0.00,40.00,10,-351,0,0.00
2013-5-17,57,28,11,43,-17,-100,99,51,35,0.00,40.00,193,-391,0,0.00
2013-5-18,62,30,28,47,-22,-100,99,43,27,0.00,40.00,11,-580,0,0.00
2013-5-19,62,40,34,46,1,-100,99,53,8,0.00,40.00,4,-770,0,0.00
2013-5-20,64,44,41,49,6,-100,87,41,37,0.00,40.00,5,-671,0,0.00
2013-5-21,62,27,40,46,-44,-100,99,23,29,0.00,40.00,243,-299,0,0.00
2013-5-22,54,21,16,54,-50,-100,74,18,30,0.00,40.00,210,-276,0,0.00
2013-5-23,54,29,16,37,-5,-100,99,51,35,0.00,40.00,171,-578,0,0.00
2013-5-24,73,26,27,54,-23,-100,99,40,24,0.00,40.00,7,-480,0,0.00
2013-5-25,61,28,21,45,-27,-100,87,34,30,0.00,40.00,126,-530,0,0.00
2013-5-26,60,23,35,44,-35,-100,96,36,44,0.00,40.00,8,-441,0,0.00
2013-5-27,57,29,31,48,-14,-100,99,54,44,0.00,40.00,143,-499,0,0.00
2013-5-28,60,24,43,50,-43,-100,99,33,57,0.00,40.00,174,-333,0,0.00
2013-5-29,63,27,43,51,-28,-100,99,39,53,0.00,40.00,36,-326,0,0.00
2013-5-30,51,36,33,48,5,-100,99,75,98,0.00,40.00,2,-839,0,0.00
2013-5-31,74,42,37,45,-13,-100,99,28,21,0.00,40.00,5,-617,0,0.00